Location: Peterborough
(44.3091°N, 78.3197°W)
Time: 09:35:34
(UTC-04:00)

A-11 Canister half - Pass Details

Date: 15 September 2024
Orbit: 1515 x 1684 km, 47.2° (Epoch: 02 October)

Event Time Altitude Azimuth Distance (km) Brightness Sun altitude
Rises 22:24:14 0° 271° (W) 4,696 12.2 -30.6°
Reaches altitude 10° 22:27:19 10° 274° (W) 3,699 11.6 -31.0°
Maximum altitude 22:36:37 75° 360° (N) 1,566 8.9 -32.3°
Enters shadow 22:39:20 51° 69° (ENE) 1,850 9.1 -32.6°
